Regional Weather Roundup
Issued by NWS Sioux Falls, SD

Home | Current Version | Previous Version | Graphics & Text | Print | Product List | Glossary Off
Versions: 1 2 3 4 5 6 7 8 9 10 11 12 13 14 15 16 17 18 19 20 21 22 23 24 25 26 27 28 29 30 31 32 33 34 35 36 37 38 39 40 41 42 43 44 45 46 47 48 49 50

609
ASUS43 KFSD 232110
RWRFSD

WEATHER ROUNDUP FOR SE SOUTH DAKOTA/SW MINNESOTA/NW IOWA
NATIONAL WEATHER SERVICE SIOUX FALLS SD
300 PM CST MON JAN 23 2017

NOTE: "FAIR" INDICATES FEW OR NO CLOUDS BELOW 12,000 FEET WITH NO
SIGNIFICANT WEATHER AND OR OBSTRUCTIONS TO VISIBILITY.


SDZ038>040-050-052>070-232200-
SOUTHEAST SOUTH DAKOTA

CITY           SKY/WX    TMP DP  RH WIND       PRES   REMARKS
BROOKINGS      CLOUDY    29  26  89 E6        29.78S WCI  23
CHAMBERLAIN    CLOUDY    34  30  86 E12       29.71F WCI  25
HURON          CLOUDY    31  27  85 E9        29.78R WCI  23
MADISON        CLOUDY    28  28 100 E6          N/A  WCI  22
MITCHELL       CLOUDY    33  27  78 SE10      29.79R WCI  25
SIOUX FALLS    CLOUDY    31  28  89 E5        29.80R WCI  26
WINNER         CLOUDY    37  29  72 SE15      29.65F
YANKTON        CLOUDY    32  27  80 E9        29.78F WCI  24
$$

MNZ071-072-080-081-089-090-097-098-232200-
SOUTHWEST MINNESOTA

CITY           SKY/WX    TMP DP  RH WIND       PRES   REMARKS
FAIRMONT       CLOUDY    32  30  92 N6        29.83S WCI  26
JACKSON        CLOUDY    30  28  93 W3        29.81S
LUVERNE        CLOUDY    30  27  86 NE5       29.80F WCI  25
MARSHALL       CLOUDY    32  28  85 N3        29.82S
MONTEVIDEO     CLOUDY    32  32 100 N3        29.83S
PIPESTONE      CLOUDY    30  28  93 E3        29.78R FOG
REDWOOD FALLS  CLOUDY    33  27  78 W6        29.82S WCI  28
TRACY          CLOUDY    32  29  90 CALM      29.82R
WINDOM         CLOUDY    30  28  93 CALM      29.81S
WORTHINGTON    CLOUDY    31  28  89 NW3       29.81
$$

IAZ001>003-012>014-020>022-031-032-NEZ013-014-SDZ071-232200-
NORTHWEST IOWA

CITY           SKY/WX    TMP DP  RH WIND       PRES   REMARKS
CHEROKEE       CLOUDY    32  31  95 CALM      29.82S
DENISON        CLOUDY    32  30  93 CALM      29.80S
ESTHERVILLE    CLOUDY    31  30  96 N3        29.81S
LE MARS        CLOUDY    32  28  86 S5        29.83S WCI  27
ORANGE CITY    CLOUDY    30  28  93 CALM      29.81R
SHELDON        CLOUDY    30  32 100 CALM      29.79S FOG
SIOUX CITY     CLOUDY    34  28  79 SE7       29.82S WCI  28
SPENCER        CLOUDY    32  30  92 CALM      29.82S
STORM LAKE     PTSUNNY   32  28  86 CALM      29.81S
$$

ABBREVIATIONS USED IN REMARKS
   TC - TEMPERATURE IN CELSIUS
  WCI - WIND CHILL INDEX
   HX - HEAT INDEX
  VSB - VISIBILITY





USA.gov is the U.S. government's official web portal to all federal, state and local government web resources and services.